Change the Weather History Date:

Saturday, October 27, 2012

  Actual Average (KLVN) Record (KLVN)
Temperature  
Mean Temperature 36 °F -  
Max Temperature 44 °F 56 °F 75 °F (1948)
Min Temperature 27 °F 36 °F 14 °F (1976)
Degree Days  
Heating Degree Days 30    
Moisture  
Dew Point 24 °F    
Average Humidity 67    
Maximum Humidity 86    
Minimum Humidity 37    
Precipitation  
Precipitation 0.00 in - - ()
Sea Level Pressure  
Sea Level Pressure 30.33 in    
Wind  
Wind Speed 3 mph (SW)    
Max Wind Speed 8 mph    
Max Gust Speed -    
Visibility 10 miles    
Events      
Averages and records for this station are not official NWS values.
T = Trace of Precipitation, MM = Missing Value Source: NWS Daily Summary

Daily Weather History Graph

Daily Weather History Graph

Search for Another Location

Airport or City:

Trip Planner

Search our weather history database for the weather conditions in past years. The results will help you decide how hot, cold, wet, or windy it might be!

Date:

Astronomy

Oct. 27, 2012 Rise Set
Actual Time 7:43 AM CDT 6:07 PM CDT
Civil Twilight 7:13 AM CDT 6:37 PM CDT
Nautical Twilight 6:39 AM CDT 7:11 PM CDT
Astronomical Twilight 6:05 AM CDT 7:45 PM CDT
Moon 4:56 PM CDT (10/27) 5:35 AM CDT (10/27)
Length of Visible Light 11h 24m
Length of Day
10h 24m
Waxing Gibbous, 96% of the Moon is Illuminated
Oct 27
Waxing Gibbous
Oct 29
Full
Nov 6
Last Quarter
Nov 13
New
Nov 20
First Quarter

Hourly Weather History & Observations

Time (CDT) Temp. Windchill Dew Point Humidity Pressure Visibility Wind Dir Wind Speed Gust Speed Precip Events Conditions
12:12 AM 32.0 °F 28.7 °F 25.5 °F 77% 30.34 in 10.0 mi WSW 3.5 mph - N/A   Clear
12:32 AM 32.0 °F 28.7 °F 26.2 °F 79% 30.34 in 10.0 mi WSW 3.5 mph - N/A   Clear
12:52 AM 31.6 °F 27.0 °F 25.9 °F 79% 30.34 in 10.0 mi SW 4.6 mph - N/A   Clear
1:12 AM 30.9 °F 27.5 °F 26.2 °F 83% 30.34 in 10.0 mi SSW 3.5 mph - N/A   Clear
1:32 AM 28.6 °F - 24.3 °F 84% 30.33 in 10.0 mi Calm Calm - N/A   Clear
1:52 AM 29.1 °F 24.1 °F 25.2 °F 85% 30.33 in 10.0 mi South 4.6 mph - N/A   Clear
2:12 AM 30.7 °F 26.0 °F 25.7 °F 82% 30.33 in 10.0 mi South 4.6 mph - N/A   Mostly Cloudy
2:32 AM 30.9 °F - 25.9 °F 82% 30.33 in 10.0 mi Calm Calm - N/A   Mostly Cloudy
2:52 AM 30.7 °F 26.0 °F 25.9 °F 82% 30.33 in 10.0 mi SSW 4.6 mph - N/A   Overcast
3:32 AM 31.5 °F 28.1 °F 26.1 °F 80% 30.33 in 10.0 mi South 3.5 mph - N/A   Overcast
3:52 AM 31.6 °F 28.3 °F 26.6 °F 82% 30.32 in 10.0 mi South 3.5 mph - N/A   Overcast
4:12 AM 31.6 °F 28.3 °F 26.6 °F 82% 30.33 in 10.0 mi South 3.5 mph - N/A   Overcast
4:32 AM 31.8 °F 28.5 °F 26.6 °F 81% 30.33 in 10.0 mi South 3.5 mph - N/A   Overcast
4:52 AM 30.9 °F 27.5 °F 26.1 °F 82% 30.33 in 10.0 mi SSW 3.5 mph - N/A   Overcast
5:12 AM 30.9 °F 27.5 °F 26.1 °F 82% 30.33 in 10.0 mi South 3.5 mph - N/A   Overcast
5:32 AM 31.3 °F 27.9 °F 26.4 °F 82% 30.33 in 10.0 mi South 3.5 mph - N/A   Overcast
5:52 AM 31.3 °F 27.9 °F 26.4 °F 82% 30.33 in 10.0 mi South 3.5 mph - N/A   Mostly Cloudy
6:12 AM 31.5 °F 28.1 °F 26.2 °F 81% 30.33 in 10.0 mi South 3.5 mph - N/A   Scattered Clouds
6:32 AM 29.7 °F 26.1 °F 25.5 °F 85% 30.34 in 10.0 mi SSW 3.5 mph - N/A   Clear
6:53 AM 29.5 °F 25.9 °F 25.0 °F 83% 30.34 in 10.0 mi South 3.5 mph - N/A   Clear
7:12 AM 29.1 °F 25.4 °F 24.4 °F 83% 30.34 in 10.0 mi South 3.5 mph - N/A   Clear
7:32 AM 28.6 °F 24.8 °F 23.9 °F 83% 30.35 in 10.0 mi South 3.5 mph - N/A   Clear
7:53 AM 28.0 °F 24.2 °F 23.5 °F 83% 30.35 in 10.0 mi SSW 3.5 mph - N/A   Clear
8:12 AM 28.2 °F 24.4 °F 24.3 °F 85% 30.35 in 10.0 mi SSW 3.5 mph - N/A   Clear
8:32 AM 28.0 °F 24.2 °F 24.3 °F 86% 30.35 in 10.0 mi SSW 3.5 mph - N/A   Clear
9:12 AM 32.0 °F 27.5 °F 27.0 °F 82% 30.36 in 10.0 mi SSW 4.6 mph - N/A   Clear
9:33 AM 32.7 °F 28.3 °F 27.3 °F 81% 30.36 in 10.0 mi SSW 4.6 mph - N/A   Clear
10:12 AM 35.6 °F 31.7 °F 28.0 °F 74% 30.37 in 10.0 mi SSW 4.6 mph - N/A   Clear
10:32 AM 36.7 °F 32.9 °F 27.0 °F 68% 30.37 in 10.0 mi SSW 4.6 mph - N/A   Clear
10:52 AM 37.9 °F 34.4 °F 26.2 °F 63% 30.37 in 10.0 mi SW 4.6 mph - N/A   Clear
11:12 AM 39.2 °F 35.0 °F 24.1 °F 55% 30.36 in 10.0 mi WSW 5.8 mph - N/A   Clear
11:32 AM 40.6 °F 36.0 °F 23.4 °F 50% 30.36 in 10.0 mi WSW 6.9 mph - N/A   Clear
11:52 AM 41.0 °F 37.1 °F 20.7 °F 44% 30.36 in 10.0 mi SW 5.8 mph - N/A   Clear
12:12 PM 41.5 °F 36.4 °F 18.7 °F 40% 30.36 in 10.0 mi WSW 8.1 mph - N/A   Scattered Clouds
12:32 PM 40.6 °F 36.0 °F 19.6 °F 43% 30.35 in 10.0 mi WSW 6.9 mph - N/A   Scattered Clouds
12:52 PM 40.8 °F 36.9 °F 17.6 °F 39% 30.34 in 10.0 mi West 5.8 mph - N/A   Scattered Clouds
1:12 PM 42.8 °F 39.3 °F 18.5 °F 38% 30.34 in 10.0 mi SW 5.8 mph - N/A   Scattered Clouds
1:32 PM 42.3 °F 38.6 °F 18.0 °F 38% 30.33 in 10.0 mi West 5.8 mph - N/A   Scattered Clouds
1:52 PM 42.3 °F 37.3 °F 18.7 °F 39% 30.33 in 10.0 mi SW 8.1 mph - N/A   Clear
2:12 PM 42.8 °F 41.1 °F 18.9 °F 38% 30.32 in 10.0 mi West 3.5 mph - N/A   Scattered Clouds
2:32 PM 42.6 °F 38.4 °F 18.9 °F 39% 30.31 in 10.0 mi West 6.9 mph - N/A   Clear
2:52 PM 43.0 °F 40.3 °F 18.7 °F 38% 30.30 in 10.0 mi WSW 4.6 mph - N/A   Clear
3:12 PM 44.1 °F 41.5 °F 19.2 °F 37% 30.30 in 10.0 mi WNW 4.6 mph - N/A   Clear
3:32 PM 43.7 °F 41.1 °F 19.4 °F 38% 30.29 in 10.0 mi WSW 4.6 mph - N/A   Clear
3:52 PM 42.8 °F 41.1 °F 19.0 °F 39% 30.29 in 10.0 mi WSW 3.5 mph - N/A   Clear
4:12 PM 42.4 °F - 18.5 °F 38% 30.29 in 10.0 mi Calm Calm - N/A   Clear
4:32 PM 42.1 °F - 18.9 °F 39% 30.29 in 10.0 mi Calm Calm - N/A   Clear
4:52 PM 42.4 °F 40.7 °F 19.9 °F 41% 30.29 in 10.0 mi SW 3.5 mph - N/A   Clear
5:12 PM 41.9 °F 39.0 °F 19.6 °F 41% 30.28 in 10.0 mi SW 4.6 mph - N/A   Clear
5:32 PM 40.5 °F 37.3 °F 22.8 °F 49% 30.28 in 10.0 mi SW 4.6 mph - N/A   Clear
5:52 PM 39.2 °F - 24.6 °F 56% 30.29 in 10.0 mi Calm Calm - N/A   Clear
6:12 PM 36.5 °F - 23.4 °F 59% 30.29 in 10.0 mi Calm Calm - N/A   Clear
6:32 PM 37.8 °F - 22.5 °F 54% 30.29 in 10.0 mi Calm Calm - N/A   Clear
6:52 PM 35.2 °F - 23.7 °F 63% 30.30 in 10.0 mi Calm Calm - N/A   Clear
7:12 PM 34.5 °F - 27.5 °F 76% 30.30 in 10.0 mi Calm Calm - N/A   Clear
7:32 PM 33.1 °F - 27.0 °F 78% 30.30 in 10.0 mi Calm Calm - N/A   Clear
7:52 PM 32.0 °F - 25.0 °F 75% 30.30 in 10.0 mi Calm Calm - N/A   Clear
8:12 PM 31.1 °F - 24.8 °F 77% 30.31 in 10.0 mi Calm Calm - N/A   Clear
8:33 PM 32.0 °F 27.5 °F 24.6 °F 74% 30.31 in 10.0 mi SSW 4.6 mph - N/A   Clear
8:52 PM 30.7 °F - 24.6 °F 78% 30.32 in 10.0 mi Calm Calm - N/A   Clear
9:12 PM 32.0 °F 28.7 °F 25.7 °F 78% 30.32 in 10.0 mi SSW 3.5 mph - N/A   Clear
9:32 PM 32.0 °F 28.7 °F 25.5 °F 77% 30.32 in 10.0 mi South 3.5 mph - N/A   Clear
9:52 PM 31.1 °F - 25.9 °F 81% 30.32 in 10.0 mi Calm Calm - N/A   Clear
10:12 PM 31.3 °F - 25.0 °F 77% 30.32 in 10.0 mi Calm Calm - N/A   Clear
10:32 PM 29.5 °F - 24.8 °F 83% 30.33 in 10.0 mi Calm Calm - N/A   Clear
10:52 PM 27.5 °F - 23.5 °F 85% 30.33 in 10.0 mi Calm Calm - N/A   Clear
11:12 PM 28.6 °F - 24.8 °F 86% 30.33 in 10.0 mi Calm Calm - N/A   Clear
11:52 PM 29.1 °F - 24.8 °F 84% 30.33 in 10.0 mi Calm Calm - N/A   Clear